Location: Tierra Monte Subdivision
(35.2092°N, 106.4864°W)
Time: 09:11:09
(UTC+00:00)

Cosmos 2278 Rocket - Pass Details

Date: 30 March 2020
Orbit: 839 x 847 km, 71.0° (Epoch: 05 June)

Event Time Altitude Azimuth Distance (km) Brightness Sun altitude
Rises 02:09:50 0° 336° (NNW) 3,408 5.9 -9.8°
Reaches altitude 10° 02:12:17 10° 335° (NNW) 2,471 5.2 -10.3°
Maximum altitude 02:17:57 76° 251° (WSW) 875 2.4 -11.4°
Drops below altitude 10° 02:23:35 10° 167° (SSE) 2,460 4.4 -12.5°
Sets 02:26:01 0° 165° (SSE) 3,392 5.1 -13.0°
